{"data":{"norad_id":64568,"intl_designator":"2025-135AS","name":"IRIDE-MS2-HEO-3","alt_names":[],"object_type":"PAYLOAD","status":"ACTIVE","operator":null,"country":"IT","launch_date":"2025-06-23","launch_site_code":"AFWTR","launch_vehicle":null,"mission":null,"orbit_class":"UNKNOWN","rcs_meters":null,"size_class":null,"mass_kg":null,"dimensions":null,"purposes":[],"wikipedia_slug":null,"has_3d_model":false,"image_url":null,"decayed_at":null,"tle_current":{"epoch":"2026-09-21T22:16:44.738112Z","epoch_age_seconds":58185,"freshness":"FRESH","line1":"1 64568U 25135AS  26264.92829558  .00001212  00000+0  12525-3 0  9996","line2":"2 64568  97.7812  17.7941 0001334  79.1310 281.0059 14.91951914 68302","mean_motion":14.91951914,"eccentricity":0.0001334,"inclination_deg":97.7812,"raan_deg":17.7941,"arg_perigee_deg":79.131,"mean_anomaly_deg":281.0059,"bstar":0.00012525,"rev_number":6830,"period_min":96.517856003769,"perigee_km":590.92003180316,"apogee_km":592.77962428889,"semimajor_km":6969.986828046,"source":"CELESTRAK","updated_at":"2026-09-22T09:00:29.850156Z"}}}